Home > Weather > Izmir > Past weeks

Flag for Turkey Weather for the Past 2 Weeks in Izmir, Turkey

Now
57 °F

Broken clouds.


Feels Like: 54 °F
Forecast: 58 / 69 °F
Wind: 15 mph from Southeast

Location: Izmir / Adnan Menderes

Current Time: Feb 13, 2016 at 12:05:27 PM

Latest Report: Feb 13, 2016 at 11:20 AM


Visibility: N/A

Pressure: 29.86 "Hg

Humidity: 82%

Dew point: 52 °F

Location of IzmirLocation

Historic Weather in Izmir — Graph

°F

Izmir Temperature Yesterday

Maximum temperature yesterday: 63 °F (at 2:20 PM)
Minimum temperature yesterday: 55 °F (at 12:50 AM)
Average temperature yesterday: 58 °F

High & Low Weather Summary for the Past Weeks

 TemperatureHumidityPressure
High68 °F (Feb 3, 2:50 PM)100% (Jan 31, 6:50 AM)30.42 "Hg (Jan 31, 6:50 AM)
Low27 °F (Feb 8, 6:50 AM)35% (Feb 8, 1:20 PM)29.62 "Hg (Feb 5, 2:50 PM)
Average49 °F74%30.13 "Hg
* Reported Jan 29 10:20 AM — Feb 13 10:50 AM, Izmir, Weather by CustomWeather, © 2016

Note: Actual official high and low records may vary slightly from our data, if they occured in-between our weather recording intervals... More about our weather records

Advertising

Izmir Weather History for the Previous 24 Hours

 ConditionsComfort  
Time TempWeatherWind HumidityBarometerVisibility
10:50 AM
Sat, Feb 13
55 °FSprinkles. Broken clouds.9 mph88%29.89 "HgN/A
10:20 AM55 °FSprinkles. Broken clouds.8 mph88%29.89 "HgN/A
9:50 AM55 °FSprinkles. Broken clouds.9 mph88%29.89 "HgN/A
9:20 AM55 °FBroken clouds.10 mph88%29.89 "HgN/A
8:50 AM55 °FBroken clouds.10 mph88%29.89 "HgN/A
8:20 AM54 °FSprinkles. Broken clouds.9 mph94%29.89 "HgN/A
7:50 AM54 °FSprinkles. Broken clouds.9 mph88%29.92 "HgN/A
7:20 AM54 °FSprinkles. Broken clouds.8 mph88%29.92 "HgN/A
6:50 AM54 °FSprinkles. Partly cloudy.13 mph94%29.89 "HgN/A
6:20 AM54 °FPartly cloudy.9 mph94%29.89 "HgN/A
5:50 AM54 °FSprinkles. Partly cloudy.8 mph88%29.89 "HgN/A
5:20 AM54 °FSprinkles. Partly cloudy.9 mph94%29.89 "HgN/A
4:50 AM54 °FSprinkles. Partly cloudy.8 mph94%29.89 "HgN/A
4:20 AM54 °FSprinkles. Partly cloudy.8 mph94%29.92 "HgN/A
3:50 AM54 °FSprinkles. Partly cloudy.9 mph88%29.92 "HgN/A
3:20 AM55 °FSprinkles. Partly cloudy.7 mph82%29.92 "HgN/A
2:57 AM55 °FSprinkles. Partly cloudy.8 mph82%29.92 "HgN/A
2:20 AM55 °FPartly cloudy.12 mph82%29.92 "HgN/A
1:50 AM55 °FPartly cloudy.12 mph82%29.95 "HgN/A
12:50 AM54 °FPartly cloudy.5 mph88%29.95 "HgN/A
12:20 AM55 °FPartly cloudy.2 mph88%29.95 "HgN/A
11:50 PM
Fri, Feb 12
55 °FPartly cloudy.7 mph88%29.95 "HgN/A
11:20 PM55 °FSprinkles. Partly cloudy.8 mph88%29.95 "HgN/A
10:50 PM55 °FSprinkles. Partly cloudy.8 mph88%29.98 "HgN/A
10:20 PM55 °FSprinkles. Partly cloudy.6 mph88%29.98 "HgN/A
9:50 PM55 °FPartly cloudy.5 mph88%29.98 "HgN/A
9:20 PM57 °FPartly cloudy.8 mph82%29.98 "HgN/A
8:50 PM55 °FPartly cloudy.6 mph94%30.01 "HgN/A
8:20 PM57 °FPartly cloudy.7 mph88%30.01 "HgN/A
7:50 PM57 °FSprinkles. Partly cloudy.7 mph88%30.01 "HgN/A
7:20 PM57 °FSprinkles. Partly cloudy.7 mph88%30.01 "HgN/A
6:50 PM59 °FPartly cloudy.8 mph82%30.01 "HgN/A
6:20 PM59 °FPartly cloudy.8 mph82%30.01 "HgN/A
5:50 PM59 °FSprinkles. Partly cloudy.9 mph82%30.01 "HgN/A
5:20 PM61 °FSprinkles. Broken clouds.8 mph77%30.01 "HgN/A
4:50 PM61 °FBroken clouds.7 mph77%30.01 "HgN/A
4:20 PM61 °FBroken clouds.12 mph77%30.01 "HgN/A
3:50 PM61 °FBroken clouds.10 mph77%30.01 "HgN/A
3:20 PM61 °FBroken clouds.14 mph77%30.01 "HgN/A
2:50 PM63 °FBroken clouds.16 mph73%29.98 "HgN/A
2:20 PM63 °FBroken clouds.15 mph73%30.01 "HgN/A
1:50 PM61 °FBroken clouds.15 mph77%30.01 "HgN/A
1:20 PM61 °FBroken clouds.14 mph77%30.01 "HgN/A
12:50 PM61 °FBroken clouds.14 mph77%30.01 "HgN/A
12:20 PM61 °FBroken clouds.15 mph77%30.01 "HgN/A
Weather by CustomWeather, © 2016

See weather overviewHow to use our weather pages